Regional Weather Roundup
Issued by NWS

Home | Current Version | Previous Version | Text Only | Print | Product List | Glossary On
Versions: 1 2 3 4 5 6 7 8 9 10 11 12 13 14 15 16 17 18 19 20 21 22 23 24 25 26 27 28 29 30 31 32 33 34 35 36 37 38 39 40 41 42 43 44 45 46 47 48 49 50
000
ASUS43 KTOP 020308
RWRKS

WEATHER ROUNDUP FOR KANSAS
NATIONAL WEATHER SERVICE GOODLAND KS
1000 PM CDT MON SEP 01 2014

NOTE:  "FAIR" INDICATES FEW OR NO CLOUDS BELOW 12,000 FEET WITH NO
SIGNIFICANT WEATHER AND/OR OBSTRUCTIONS TO VISIBILITY.

KSZ001>006-013>018-027>032-041>047-020400-
NORTHWEST KANSAS

CITY           SKY/WX    TMP DP  RH WIND       PRES   REMARKS
GOODLAND       CLEAR     62  53  72 SE6       29.98R
HAYS           CLEAR     68  61  77 NE5       29.90S
HILL CITY      CLEAR     65  58  78 CALM      29.92R
RUSSELL        CLEAR     67  63  87 E6        29.88S
$$

KSZ061>065-074>080-084>089-020400-
SOUTHWEST KANSAS

CITY           SKY/WX    TMP DP  RH WIND       PRES   REMARKS
DODGE CITY     CLEAR     66  63  90 NE7       29.93R
ELKHART          N/A     72  59  64 E9          N/A
GARDEN CITY    CLEAR     69  62  78 E6        29.95R
GREAT BEND     CLEAR     70  64  83 E6        29.89F
LIBERAL        CLEAR     75  63  64 E7        29.94R
PRATT          CLEAR     70  64  83 NE7       29.91R
$$

KSZ066>073-081>083-090>101-020400-
SOUTHEAST KANSAS

CITY           SKY/WX    TMP DP  RH WIND       PRES   REMARKS
CHANUTE        CLOUDY    75  71  87 NE9       29.88R
COFFEYVILLE    TSTM      76  74  93 N17       29.86R FOG
HUTCHINSON     CLOUDY    74  66  76 E9        29.90R
MEDICINE LODGE   N/A     74  67  78 N9        29.86R
NEWTON         MOCLDY    70  64  83 NE7       29.92R
PARSONS        CLOUDY    74  70  87 S8G22     29.84F THUNDER
WICHITA INTL   MOCLDY    76  68  76 NE18      29.87R
WICHITA JABRA  CLOUDY    73  69  87 NE13      29.87R
WICHITA MCCONL CLOUDY    75  73  94 NE16      29.88R
$$

KSZ007>012-019>026-033>040-048>060-102>105-020400-
NORTHEAST KANSAS

CITY           SKY/WX    TMP DP  RH WIND       PRES   REMARKS
CONCORDIA      CLEAR     64  62  93 N6        29.88S
EMPORIA        LGT RAIN  72  69  90 E7        29.90R
LAWRENCE       LGT RAIN N/A N/A N/A E6        29.87S
MANHATTAN      CLOUDY    71  69  93 CALM      29.87R
OLATHE IND     CLOUDY    70  69  97 NE8       29.89F
OLATHE EXE     CLOUDY    70  70 100 N3        29.88F
SALINA         PTCLDY    74  67  78 SE5       29.88R
TOPEKA BILLARD MOCLDY    72  71  97 SE3       29.88R
TOPEKA FORBES  MOCLDY    70  69  97 E3        29.88R
$$



USA.gov is the U.S. government's official web portal to all federal, state and local government web resources and services.